www.pogodaiklimat.ru

Погода и климат >> Архив погоды >> Россия >> Камчатский край >> Ключи


АРХИВ ПОГОДЫ в Ключах

Время (UTC), дата Ветер
(напр.,м/с)
 
Видим.   Явления Облачность Т
(С)
Тd
(С)
f
(%)
Тe
(С)
Тes
(С)
Комфортность P
(гПа)
Po
(гПа)
Тmin
(С)
Tmax
(С)
R
(мм)
R24
(мм)
S
(см)
18 9.06 ЮВ 1 4000 м слаб. ливневой дождь 10/10 360 м
[Cb cap]
+6.3 +5.1 92 +5 +5 1019.6 1016.1
21 9.06 В 2 4000 м слаб. ливневой дождь 10/10 360 м
[Cb cap]
+7.0 +5.8 92 +5 +5 1019.9 1016.3 +6.3 5
00 10.06 В 4 2000 м ливневой дождь 10/10 300 м
[Cb cap]
+8.6 +6.3 85 +5 +5 1019.5 1015.9
03 10.06 В 5 4000 м слаб. ливневой дождь 10/10 400 м
[Cb cap]
+9.4 +6.1 80 +6 +6 1019.1 1015.5
06 10.06 В 3 10 км слаб. ливневой дождь 10/8 600 м
[Cb cap Ac As]
+9.3 +5.8 79 +7 +7 1018.9 1015.3
09 10.06 В 3 10 км {ливн. осадки} 10/8 800 м
[Sc diur, vesp Ac As]
+7.4 +3.3 75 +5 +5 1019.3 1015.7 +10.0 3
12 10.06 ЮВ 2 10 км слаб. ливневой дождь 10/10 800 м
[Cb cap]
+5.7 +3.6 86 +3 +3 1019.3 1015.7
15 10.06 В 3 10 км слаб. ливневой дождь 10/10 800 м
[Cb cap]
+6.0 +2.4 78 +3 +3 1019.4 1015.8
18 10.06 ЮВ 1 10 км {ливн. осадки} 10/8 800 м
[Sc diur, vesp Ac As]
+4.6 +2.8 88 +3 +3 1019.7 1016.1
21 10.06 В 3 10 км {снег} 9/8 800 м
[Sc Ci fib]
+8.0 +2.2 67 +6 +7 1020.1 1016.5 +4.5 1
00 11.06 В 3 20 км {дождь} 9/8 960 м
[Sc Ac trans Ci fib]
+10.0 +2.3 59 +8 +10 1019.2 1015.7
03 11.06 В 1 50 км 10/8 1000 м
[Sc Ac As]
+10.8 +2.5 56 +11 +12 1018.1 1014.6
06 11.06 В 2 50 км 10/10 1050 м
[Sc]
+10.0 +2.7 60 +9 +9 1018.1 1014.6
09 11.06 В 2 50 км 10/10 1000 м
[Sc]
+8.6 +2.5 65 +7 +7 1018.7 1015.2 +11.3
12 11.06 В 2 20 км 10/10 1020 м
[Sc]
+7.3 +2.2 70 +5 +5 1019.3 1015.7
15 11.06 штиль 0 20 км 10/10 1020 м
[Sc]
+5.9 +1.9 75 +5 +5 1019.4 1015.8
18 11.06 З 3 50 км 10/10 1020 м
[Sc]
+5.6 +2.3 79 +2 +2 1019.8 1016.2
21 11.06 З 3 50 км 10/5 1000 м
[Sc Ac As]
+7.1 +2.6 73 +4 +5 1020.1 1016.5 +5.5
00 12.06 СВ 2 50 км 9/3 1000 м
[Sc Ac trans Ci fib]
+11.0 +2.7 57 +10 +16 1019.0 1015.5
03 12.06 В 3 50 км 8/3 1000 м
[Sc Ac trans Ci fib]
+12.9 +3.5 53 +12 +17 1017.7 1014.2
06 12.06 В 2 50 км 8/0
[Ac trans Ci fib]
+14.4 +2.9 46 +14 +18 1016.8 1013.3
09 12.06 В 2 50 км 3/0
[Ci fib]
+12.1 +3.1 54 +11 +12 1016.5 1013.0 +14.5
12 12.06 В 3 20 км 6/0
[Cc]
+8.0 +2.9 70 +6 +6 1017.7 1014.1
15 12.06 ЮВ 2 20 км 4/0
[Ci fib]
+4.4 +2.0 84 +2 +2 1017.9 1014.3
18 12.06 В 2 50 км 3/0
[Ci fib]
+4.4 +2.4 87 +2 +2 1018.2 1014.6
21 12.06 В 3 50 км 8/0
[Ac trans Ci]
+9.9 +4.5 69 +8 +12 1017.9 1014.4 +2.6
00 13.06 СВ 2 50 км 9/0
[Ac trans Ci fib]
+15.4 +5.5 52 +15 +25 1017.2 1013.7
03 13.06 В 3 50 км 6/1 1000 м
[Cu hum Ac trans Ci fib]
+18.3 +4.1 39 +19 +26 1015.8 1012.4
06 13.06 В 4 50 км 3/1 1000 м
[Cu hum Ac trans Ci fib]
+18.0 +1.5 33 +18 +21 1014.7 1011.3
09 13.06 В 4 50 км {метель} 9/3 1000 м
[Sc Ac trans Ci fib]
+13.7 +2.3 46 +12 +13 1015.7 1012.2 +19.0
12 13.06 В 3 20 км {метель} 8/0
[Ac trans Ci fib]
+9.3 +2.7 63 +7 +7 1016.5 1012.9
15 13.06 В 3 20 км 8/0
[Ac trans Ci fib]
+5.5 +2.1 79 +2 +2 1016.3 1012.7
18 13.06 ЮВ 3 50 км 8/0
[Ac trans Ci fib]
+4.8 +3.2 89 +1 +2 1016.7 1013.1
21 13.06 В 2 50 км 6/0
[Ac trans Ci fib]
+8.5 +4.5 76 +7 +12 1016.7 1013.2 +3.2
00 14.06 В 2 50 км 4/0
[Ci fib]
+14.9 +4.1 48 +15 +28 опасность
простуды
1015.6 1012.1
03 14.06 В 2 50 км 4/0
[Ci fib]
+19.0 -4.6 20 +19 +32 опасность
простуды
1014.9 1011.5
06 14.06 В 2 50 км 3/0
[Ci fib]
+19.5 +0.8 29 +20 +25 1013.9 1010.5
09 14.06 СВ 1 50 км 4/0
[Ci fib]
+16.6 +3.3 41 +18 +18 1014.6 1011.2 +19.9
12 14.06 В 3 20 км 3/0
[Ac trans Ci fib]
+12.9 +3.6 53 +12 +12 1016.1 1012.6
15 14.06 ЮВ 2 20 км 3/0
[Ac trans Ci fib]
+6.8 +3.6 80 +5 +5 1017.0 1013.4
18 14.06 З 1 50 км 3/1 1000 м
[Sc Ac trans Ci fib]
+6.0 +4.1 88 +5 +5 1018.4 1014.8
21 14.06 В 1 50 км 6/1 1000 м
[Sc Ac trans Ci fib]
+13.0 +6.2 63 +13 +19 1019.3 1015.8 +4.4
00 15.06 СВ 1 50 км 8/3 1000 м
[Cu hum Ac trans Ci fib]
+19.3 +3.7 36 +21 +28 комфорт 1019.2 1015.8
03 15.06 В 3 50 км 8/3 1000 м
[Sc Ac trans Ci fib]
+20.5 +2.1 29 +21 +26 комфорт 1018.9 1015.5
06 15.06 В 4 50 км позёмок 6/3 1000 м
[Sc Ac trans Ci fib]
+19.5 +4.9 38 +20 +22 1019.1 1015.6
09 15.06 В 3 50 км {метель} 6/3 1000 м
[Sc Ac trans Ci fib]
+15.9 +6.2 52 +16 +16 1020.9 1017.4 +21.1
12 15.06 В 4 20 км позёмок 6/0
[Ac trans Ci fib]
+13.0 +5.3 59 +11 +11 1022.3 1018.8
15 15.06 ЮВ 2 20 км {метель} 6/0
[Ac trans Ci fib]
+8.6 +5.2 79 +7 +7 1023.0 1019.5
18 15.06 ЮВ 3 50 км {метель} 3/0
[Ci fib]
+9.1 +5.1 76 +7 +7 1023.6 1020.0
21 15.06 В 3 50 км 3/0
[Ci fib]
+12.8 +6.0 63 +12 +17 1023.7 1020.2 +6.9
00 16.06 В 2 50 км 9/0
[Ac lent Cs]
+17.3 +4.3 42 +18 +27 1022.3 1018.9
03 16.06 СВ 1 50 км 10/0
[As trans Cs]
+19.1 +5.1 40 +21 +31 комфорт 1021.3 1017.9
06 16.06 В 1 50 км 10/0
[As trans Cs]
+19.8 +5.4 39 +22 +26 комфорт 1020.6 1017.2
09 16.06 В 2 50 км 10/1 1000 м
[Sc As op]
+15.8 +5.3 50 +16 +16 1021.3 1017.8 +20.5
12 16.06 ЮЗ 1 20 км 10/3 1000 м
[Sc As op]
+13.5 +5.9 60 +14 +14 1021.3 1017.8
15 16.06 штиль 0 20 км 10/4 1000 м
[Sc As op]
+11.4 +7.3 76 +11 +11 1020.9 1017.4

 

Местоположение метеостанции Ключи (Камчатский край, Россия): широта 56.32 долгота 160.80 высота над уровнем моря 29 м.

В архиве по умолчанию представлена погода в Ключах за последнюю неделю. Архивные данные за месяц целиком и за предыдущие месяцы, начиная с января 2011 года, Вы можете получить, выбрав интересующий диапазон дат из раскрывающегося списка и нажав кнопку "Ввод!".


*Определитесь, кто Вы:
робот инопланетянин человек

Внимание! Время в таблицах - всемирное. Для получения местного времени необходимо прибавить поправку, которая равна 12 ч.

Смотрите также архив погоды в соседних городах и на ближайших метеорологических станциях:

Погода в Козыревске (Камчатский край, Россия) (69 км)
Погода в Усть-Камчатске (Камчатский край, Россия) (118 км)
Погода в Эссо (Камчатский край, Россия) (137 км)
Погода на Мысе Африка (Камчатский край, Россия) (155 км)
Погода в Долиновке (Камчатский край, Россия) (175 км)
Погода в Тигиле (Камчатский край, Россия) (207 км)
Погода на Мысе Озерном (Камчатский край, Россия) (207 км)
Погода в Мильково (Камчатский край, Россия) (233 км)
Погода в Семячике (Камчатский край, Россия) (251 км)
Погода в Усть-Воямполке (Камчатский край, Россия) (263 км)

Пояснения к столбцам:

Ветер - указаны скорость ветра в м/с - средняя за 10 мин, порывы в срок и между сроками (в фигурных скобках) и направление, откуда дует ветер: С - северный, СВ - северо-восточный, В - восточный, ЮВ - юго-восточный, Ю - южный, ЮЗ - юго-западный, З - западный, СЗ - северо-западный.
Видимость - горизонтальная дальность видимости в метрах или километрах. При видимости от 1 до 10 км при отсутствии осадков обычно наблюдается дымка, при ухудшении видимости до 1 км и менее - туман. В сухую погоду видимость может ухудшаться дымом, пылью или мглою.
Явления - указаны атмосферные явления, наблюдавшиеся в срок или в последний час перед сроком; фигурными скобками обозначены явления, наблюдавшиеся между сроками (за 1-3 часа до срока); квадратными скобками обозначены град или гололедные отложения с указанием их диаметра в мм.
Облачность - указаны через наклонную черту общая и нижняя облачность в баллах и высота нижней границы облаков в метрах; квадратными скобками обозначены формы облаков: Ci - перистые, Cs - перисто-слоистые, Cc - перисто-кучевые, Ac - высококучевые, As - высокослоистые, Sc - слоисто-кучевые, Ns - слоисто-дождевые, Cu - кучевые, Cb - кучево-дождевые. Подробнее классификацию облаков см. в Атласе облаков (PDF).
T - Температура воздуха - температура, измеренная на высоте 2 м над землей.
Td - Температура точки росы - температура, при понижении до которой содержащийся в воздухе водяной пар достигнет насыщения.
f - Относительная влажность воздуха - влажноcть воздуха, измеренная на высоте 2 м над землей.
Te - Эффективная температура - температура, которую ощущает одетый по сезону человек в тени. Характеристика душности погоды. При расчете учитывается влияние влажности воздуха и скорости ветра на теплоощущения человека.
Tes - Эффективная температура на солнце - температура, которую ощущает человек, с поправкой на солнечный нагрев. Характеристика знойности погоды. Зависит от высоты солнца над горизонтом, облачности и скорости ветра. Ночью, в пасмурную погоду, а также при ветре 12 м/с и более поправка равна нулю.
P - Атмосферное давление - приведенное к уровню моря атмосферное давление.
Po - Атмосферное давление - измеренное на уровне метеостанции атмосферное давление.
Tmin - Минимальная температура - минимум температуры воздуха на высоте 2 м над землей.
Tmax - Максимальная температура - максимум температуры воздуха на высоте 2 м над землей.
R - Количество осадков - Количество выпавших осадков за период времени, мм. При наведении курсора мыши на число - период времени, за который выпало указанное количество осадков.
R24 - Количество осадков - Количество выпавших осадков за 24 часа, мм.
S - Снежный покров - Высота снежного покрова, см. При наведении курсора мыши на число - состояние снежного покрова и степень покрытия местности в баллах.